Powrót do katalogu

COSMOS 2251 DEB

AktywnyLEO
NORAD 35586·DEBRIS·🇷🇺 Russia

Wystrzelony Jun 16, 1993 z Plesetsk Cosmodrome

Loading…

Następne Przeloty (najbliższe 24 godziny)

TLE

Starzejące sięSource: Space-Track

Epoka: Sep 9, 2026, 04:46 UTC

1 35586U 93036AMD 26252.19928096  .00000371  00000-0  35564-3 0  9996
2 35586  74.0213 229.1125 0401767  47.4591 328.9021 13.52342349640385

Śledź COSMOS 2251 DEB w czasie rzeczywistym z AllMySat

Download on the App Store